QPF
0.01 0.01 0.02 0.02 0.01 0.01 0.02 0.03 0.02 0.01 0.01 0.01 0.01 0.02 0.01 0.01 0.02 0.02 0.02 0.03 0.03 0.03 0.05 0.07 0.07 0.06 0.05 0.06 0.10 0.11 0.10 0.10 0.10 0.08 0.10 0.11 0.12 0.11 0.08 0.12 0.15 0.19 0.20 0.20 0.20 0.14 0.10 0.08 0.07
0.01 0.01 0.02 0.02 0.01 0.01 0.02 0.03 0.02 0.01 0.01 0.01 0.01 0.01 0.00 0.00 0.01 0.01 0.03 0.03 0.02 0.02 0.04 0.07 0.06 0.04 0.04 0.05 0.09 0.09 0.08 0.07 0.06 0.06 0.08 0.09 0.10 0.10 0.09 0.11 0.12 0.12 0.11 0.12 0.13 0.10 0.08 0.08 0.07
0.01 0.01 0.02 0.02 0.01 0.01 0.02 0.03 0.03 0.01 0.02 0.02 0.01 0.00 0.01 0.01 0.01 0.02 0.04 0.03 0.03 0.02 0.04 0.07 0.06 0.04 0.04 0.04 0.08 0.09 0.06 0.05 0.05 0.06 0.07 0.08 0.08 0.09 0.11 0.10 0.08 0.07 0.07 0.09 0.11 0.08 0.08 0.06 0.05
0.01 0.01 0.01 0.01 0.01 0.01 0.02 0.03 0.04 0.04 0.04 0.02 0.01 0.01 0.02 0.02 0.02 0.03 0.03 0.03 0.03 0.03 0.04 0.07 0.05 0.04 0.04 0.05 0.09 0.11 0.08 0.05 0.05 0.06 0.07 0.08 0.09 0.11 0.11 0.08 0.06 0.06 0.07 0.09 0.11 0.07 0.05 0.04 0.05
0.02 0.01 0.01 0.01 0.01 0.02 0.02 0.03 0.04 0.04 0.03 0.02 0.01 0.01 0.02 0.03 0.02 0.03 0.03 0.02 0.03 0.03 0.03 0.04 0.05 0.04 0.05 0.06 0.09 0.12 0.11 0.07 0.06 0.06 0.06 0.07 0.08 0.09 0.10 0.08 0.08 0.07 0.06 0.07 0.09 0.05 0.04 0.04 0.03
0.02 0.02 0.01 0.00 0.01 0.02 0.02 0.03 0.03 0.02 0.01 0.00 0.00 0.00 0.02 0.03 0.02 0.02 0.02 0.02 0.02 0.02 0.03 0.02 0.03 0.05 0.08 0.08 0.07 0.11 0.10 0.08 0.06 0.06 0.08 0.06 0.06 0.06 0.07 0.09 0.09 0.07 0.06 0.07 0.08 0.04 0.02 0.02 0.03
0.01 0.01 0.01 0.00 0.00 0.01 0.01 0.01 0.01 0.00 0.00 0.00 0.00 0.00 0.02 0.02 0.01 0.02 0.02 0.01 0.01 0.02 0.03 0.02 0.02 0.04 0.06 0.09 0.07 0.06 0.06 0.06 0.05 0.05 0.08 0.07 0.06 0.05 0.05 0.06 0.08 0.08 0.06 0.06 0.08 0.06 0.04 0.03 0.03
0.01 0.01 0.01 0.00 0.00 0.00 0.00 0.00 0.00 0.00 0.00 0.00 0.00 0.01 0.01 0.01 0.01 0.01 0.02 0.01 0.01 0.01 0.02 0.02 0.02 0.02 0.02 0.03 0.04 0.03 0.03 0.05 0.04 0.05 0.07 0.07 0.06 0.04 0.04 0.05 0.06 0.07 0.08 0.10 0.11 0.10 0.07 0.05 0.04
0.01 0.01 0.00 0.00 0.00 0.00 0.00 0.00 0.00 0.00 0.00 0.00 0.00 0.01 0.01 0.01 0.00 0.01 0.01 0.01 0.02 0.01 0.02 0.01 0.01 0.02 0.02 0.02 0.03 0.03 0.03 0.04 0.05 0.05 0.06 0.07 0.04 0.03 0.03 0.04 0.06 0.06 0.08 0.10 0.12 0.10 0.07 0.04 0.05
0.00 0.00 0.00 0.00 0.00 0.00 0.00 0.00 0.00 0.00 0.00 0.00 0.01 0.01 0.01 0.01 0.00 0.00 0.01 0.01 0.01 0.01 0.01 0.01 0.01 0.02 0.02 0.02 0.02 0.02 0.02 0.04 0.06 0.05 0.04 0.04 0.02 0.02 0.03 0.06 0.08 0.08 0.11 0.12 0.12 0.09 0.07 0.04 0.03
0.00 0.00 0.00 0.00 0.00 0.00 0.00 0.00 0.00 0.00 0.00 0.00 0.00 0.00 0.01 0.01 0.01 0.01 0.01 0.02 0.01 0.01 0.01 0.01 0.01 0.01 0.02 0.01 0.02 0.02 0.03 0.03 0.03 0.03 0.03 0.03 0.02 0.02 0.04 0.05 0.08 0.07 0.10 0.10 0.08 0.05 0.03 0.02 0.02
0.00 0.00 0.00 0.00 0.00 0.00 0.00 0.00 0.00 0.00 0.00 0.00 0.00 0.00 0.00 0.01 0.02 0.02 0.02 0.02 0.02 0.01 0.02 0.02 0.02 0.02 0.02 0.01 0.01 0.01 0.01 0.01 0.03 0.04 0.02 0.03 0.02 0.03 0.05 0.05 0.05 0.04 0.08 0.07 0.04 0.03 0.02 0.03 0.02
0.00 0.00 0.00 0.00 0.00 0.00 0.00 0.00 0.00 0.00 0.00 0.00 0.00 0.00 0.00 0.00 0.00 0.01 0.02 0.03 0.05 0.05 0.06 0.08 0.05 0.03 0.02 0.01 0.01 0.01 0.01 0.01 0.02 0.02 0.02 0.03 0.02 0.03 0.05 0.05 0.05 0.04 0.05 0.06 0.03 0.02 0.02 0.02 0.01
0.00 0.00 0.00 0.00 0.00 0.00 0.00 0.00 0.00 0.00 0.00 0.00 0.00 0.00 0.00 0.00 0.01 0.03 0.04 0.04 0.04 0.05 0.06 0.07 0.04 0.03 0.02 0.01 0.01 0.01 0.01 0.01 0.01 0.02 0.02 0.04 0.03 0.03 0.04 0.05 0.05 0.03 0.04 0.05 0.03 0.03 0.04 0.03 0.03
0.00 0.00 0.00 0.00 0.00 0.00 0.00 0.00 0.00 0.00 0.00 0.00 0.00 0.00 0.00 0.00 0.01 0.01 0.01 0.01 0.02 0.04 0.04 0.04 0.03 0.02 0.01 0.01 0.01 0.01 0.01 0.01 0.01 0.02 0.03 0.03 0.04 0.04 0.04 0.05 0.04 0.02 0.03 0.05 0.05 0.05 0.04 0.05 0.04
0.00 0.00 0.00 0.00 0.00 0.00 0.00 0.00 0.00 0.00 0.00 0.00 0.00 0.00 0.00 0.00 0.00 0.01 0.02 0.02 0.01 0.02 0.02 0.02 0.02 0.02 0.02 0.02 0.02 0.03 0.03 0.03 0.02 0.03 0.05 0.06 0.06 0.06 0.05 0.04 0.05 0.04 0.05 0.05 0.03 0.03 0.03 0.03 0.03
0.00 0.00 0.00 0.00 0.00 0.00 0.00 0.00 0.00 0.00 0.00 0.00 0.00 0.00 0.00 0.00 0.00 0.00 0.01 0.01 0.01 0.02 0.03 0.02 0.03 0.03 0.03 0.03 0.03 0.06 0.05 0.04 0.04 0.05 0.07 0.08 0.08 0.08 0.09 0.08 0.07 0.05 0.05 0.04 0.02 0.03 0.03 0.04 0.04
0.01 0.00 0.00 0.00 0.00 0.01 0.00 0.00 0.00 0.00 0.00 0.00 0.00 0.00 0.00 0.00 0.00 0.00 0.00 0.01 0.01 0.01 0.02 0.02 0.03 0.03 0.03 0.03 0.04 0.04 0.04 0.06 0.06 0.06 0.08 0.08 0.08 0.08 0.09 0.06 0.07 0.06 0.04 0.03 0.02 0.02 0.01 0.02 0.02
0.00 0.00 0.00 0.00 0.00 0.00 0.00 0.00 0.00 0.00 0.00 0.00 0.00 0.00 0.00 0.00 0.00 0.00 0.00 0.00 0.01 0.01 0.01 0.01 0.02 0.02 0.03 0.03 0.03 0.02 0.02 0.03 0.04 0.04 0.06 0.06 0.04 0.05 0.04 0.03 0.04 0.04 0.03 0.02 0.01 0.01 0.03 0.03 0.01
0.00 0.00 0.00 0.00 0.00 0.00 0.00 0.00 0.00 0.00 0.00 0.00 0.00 0.00 0.00 0.00 0.00 0.00 0.00 0.00 0.00 0.01 0.02 0.02 0.02 0.03 0.03 0.03 0.02 0.01 0.01 0.01 0.01 0.01 0.02 0.02 0.02 0.02 0.01 0.01 0.02 0.02 0.03 0.03 0.02 0.02 0.02 0.03 0.02
0.00 0.00 0.00 0.00 0.00 0.00 0.00 0.00 0.00 0.00 0.00 0.00 0.00 0.00 0.00 0.00 0.00 0.00 0.00 0.00 0.00 0.01 0.01 0.02 0.03 0.03 0.03 0.03 0.01 0.01 0.01 0.01 0.00 0.01 0.01 0.01 0.02 0.02 0.02 0.02 0.01 0.01 0.01 0.02 0.03 0.03 0.03 0.02 0.02
0.00 0.00 0.00 0.00 0.00 0.00 0.00 0.00 0.00 0.00 0.00 0.00 0.00 0.00 0.00 0.00 0.00 0.00 0.00 0.00 0.00 0.01 0.01 0.02 0.02 0.02 0.02 0.02 0.01 0.01 0.00 0.01 0.01 0.01 0.01 0.03 0.03 0.03 0.03 0.03 0.02 0.02 0.02 0.02 0.02 0.02 0.03 0.03 0.02
0.00 0.00 0.00 0.00 0.00 0.00 0.00 0.00 0.00 0.00 0.00 0.00 0.00 0.00 0.00 0.00 0.00 0.00 0.00 0.00 0.00 0.00 0.01 0.01 0.01 0.01 0.01 0.01 0.01 0.01 0.01 0.01 0.02 0.02 0.02 0.03 0.04 0.04 0.04 0.03 0.03 0.04 0.03 0.03 0.03 0.02 0.03 0.03 0.03
0.00 0.00 0.00 0.00 0.00 0.00 0.00 0.00 0.00 0.00 0.00 0.00 0.00 0.00 0.00 0.00 0.00 0.00 0.00 0.00 0.00 0.00 0.01 0.00 0.00 0.00 0.00 0.00 0.00 0.00 0.01 0.01 0.02 0.03 0.03 0.04 0.04 0.05 0.04 0.04 0.05 0.04 0.04 0.04 0.04 0.03 0.03 0.04 0.03
0.00 0.00 0.00 0.00 0.00 0.00 0.00 0.00 0.00 0.00 0.00 0.00 0.00 0.00 0.00 0.00 0.00 0.00 0.00 0.01 0.01 0.00 0.00 0.01 0.00 0.00 0.00 0.00 0.00 0.01 0.01 0.01 0.02 0.03 0.04 0.04 0.06 0.06 0.05 0.05 0.05 0.05 0.07 0.07 0.06 0.05 0.04 0.04 0.04
0.00 0.00 0.00 0.00 0.00 0.00 0.00 0.00 0.00 0.00 0.00 0.00 0.00 0.00 0.00 0.00 0.00 0.00 0.00 0.01 0.01 0.01 0.01 0.01 0.00 0.00 0.00 0.00 0.01 0.01 0.01 0.01 0.01 0.02 0.03 0.03 0.04 0.05 0.06 0.07 0.07 0.08 0.08 0.07 0.07 0.06 0.06 0.05 0.04
0.00 0.00 0.00 0.00 0.00 0.01 0.00 0.00 0.00 0.00 0.00 0.00 0.00 0.01 0.01 0.01 0.01 0.01 0.01 0.01 0.01 0.01 0.02 0.01 0.00 0.00 0.00 0.00 0.01 0.01 0.01 0.01 0.01 0.02 0.01 0.01 0.02 0.03 0.05 0.07 0.08 0.09 0.08 0.07 0.07 0.07 0.06 0.06 0.05
0.00 0.00 0.00 0.00 0.00 0.01 0.00 0.00 0.00 0.00 0.00 0.00 0.01 0.02 0.01 0.01 0.01 0.01 0.01 0.02 0.02 0.01 0.01 0.01 0.00 0.00 0.00 0.00 0.01 0.01 0.01 0.01 0.01 0.01 0.01 0.01 0.02 0.02 0.04 0.08 0.08 0.08 0.07 0.07 0.08 0.07 0.06 0.07 0.06
0.00 0.00 0.00 0.00 0.00 0.00 0.00 0.00 0.00 0.00 0.00 0.00 0.00 0.01 0.01 0.01 0.01 0.01 0.01 0.02 0.02 0.01 0.01 0.00 0.00 0.00 0.00 0.00 0.00 0.01 0.01 0.01 0.01 0.01 0.01 0.01 0.02 0.02 0.04 0.08 0.07 0.06 0.06 0.07 0.08 0.08 0.08 0.08 0.06
0.00 0.00 0.00 0.00 0.00 0.00 0.00 0.00 0.00 0.00 0.00 0.00 0.00 0.00 0.00 0.01 0.01 0.01 0.02 0.02 0.01 0.01 0.01 0.00 0.00 0.00 0.00 0.00 0.00 0.00 0.01 0.02 0.02 0.02 0.03 0.03 0.02 0.02 0.05 0.07 0.06 0.05 0.04 0.05 0.05 0.06 0.07 0.07 0.05
MSLP
1006.27 1007.49 1008.98 1010.56 1012.05 1013.28 1014.14 1014.60 1014.71 1014.56 1014.30 1014.06 1013.92 1013.91 1014.00 1014.11 1014.16 1014.08 1013.82 1013.41 1012.89 1012.36 1011.88 1011.51 1011.27 1011.15 1011.08 1011.02 1010.91 1010.72 1010.47 1010.18 1009.90 1009.70 1009.59 1009.59 1009.68 1009.83 1009.99 1010.14 1010.25 1010.33 1010.41 1010.51 1010.66 1010.88 1011.18 1011.52 1011.88
1006.85 1008.29 1009.94 1011.58 1013.04 1014.15 1014.81 1015.04 1014.89 1014.51 1014.07 1013.69 1013.47 1013.43 1013.53 1013.69 1013.80 1013.79 1013.61 1013.27 1012.82 1012.35 1011.92 1011.59 1011.40 1011.31 1011.29 1011.28 1011.23 1011.11 1010.94 1010.73 1010.53 1010.40 1010.34 1010.37 1010.47 1010.60 1010.74 1010.86 1010.95 1011.01 1011.08 1011.18 1011.33 1011.55 1011.83 1012.14 1012.46
1007.58 1009.19 1010.91 1012.55 1013.91 1014.85 1015.31 1015.31 1014.95 1014.39 1013.80 1013.33 1013.06 1013.02 1013.14 1013.34 1013.50 1013.55 1013.43 1013.15 1012.77 1012.35 1011.98 1011.71 1011.57 1011.53 1011.55 1011.59 1011.60 1011.55 1011.44 1011.31 1011.18 1011.10 1011.07 1011.11 1011.20 1011.32 1011.43 1011.52 1011.58 1011.65 1011.72 1011.84 1012.00 1012.23 1012.50 1012.78 1013.07
1008.39 1010.07 1011.80 1013.36 1014.58 1015.34 1015.60 1015.41 1014.89 1014.21 1013.55 1013.06 1012.79 1012.76 1012.91 1013.14 1013.34 1013.42 1013.34 1013.11 1012.79 1012.43 1012.12 1011.91 1011.82 1011.83 1011.90 1011.98 1012.03 1012.02 1011.97 1011.88 1011.80 1011.75 1011.74 1011.78 1011.86 1011.95 1012.03 1012.10 1012.16 1012.23 1012.33 1012.47 1012.66 1012.90 1013.16 1013.43 1013.69
1009.16 1010.85 1012.51 1013.94 1014.99 1015.57 1015.66 1015.34 1014.74 1014.03 1013.38 1012.91 1012.69 1012.71 1012.89 1013.14 1013.35 1013.44 1013.39 1013.20 1012.92 1012.63 1012.39 1012.24 1012.20 1012.25 1012.34 1012.44 1012.50 1012.52 1012.48 1012.41 1012.35 1012.32 1012.32 1012.36 1012.42 1012.49 1012.56 1012.62 1012.69 1012.77 1012.89 1013.06 1013.28 1013.53 1013.80 1014.05 1014.28
1009.82 1011.45 1012.97 1014.22 1015.09 1015.51 1015.49 1015.11 1014.51 1013.86 1013.29 1012.92 1012.78 1012.85 1013.06 1013.32 1013.53 1013.62 1013.57 1013.41 1013.18 1012.95 1012.77 1012.68 1012.68 1012.76 1012.86 1012.95 1013.00 1012.99 1012.94 1012.87 1012.81 1012.78 1012.79 1012.83 1012.89 1012.96 1013.02 1013.09 1013.16 1013.26 1013.41 1013.60 1013.83 1014.09 1014.36 1014.59 1014.79
1010.32 1011.81 1013.15 1014.22 1014.91 1015.20 1015.12 1014.75 1014.23 1013.70 1013.28 1013.05 1013.02 1013.15 1013.39 1013.64 1013.82 1013.89 1013.83 1013.69 1013.50 1013.33 1013.21 1013.18 1013.22 1013.31 1013.40 1013.45 1013.46 1013.42 1013.33 1013.24 1013.18 1013.15 1013.17 1013.22 1013.29 1013.37 1013.44 1013.51 1013.59 1013.70 1013.85 1014.05 1014.29 1014.55 1014.80 1015.01 1015.17
1010.67 1011.99 1013.12 1013.99 1014.52 1014.71 1014.61 1014.31 1013.92 1013.56 1013.32 1013.24 1013.33 1013.53 1013.77 1014.00 1014.14 1014.17 1014.10 1013.96 1013.81 1013.70 1013.64 1013.66 1013.73 1013.82 1013.89 1013.90 1013.86 1013.77 1013.65 1013.54 1013.47 1013.45 1013.49 1013.56 1013.66 1013.75 1013.83 1013.90 1013.98 1014.08 1014.22 1014.41 1014.64 1014.87 1015.10 1015.28 1015.41
1010.92 1012.04 1012.97 1013.65 1014.03 1014.16 1014.07 1013.86 1013.62 1013.44 1013.38 1013.45 1013.64 1013.88 1014.13 1014.31 1014.40 1014.39 1014.29 1014.16 1014.04 1013.98 1013.98 1014.04 1014.14 1014.23 1014.27 1014.25 1014.16 1014.03 1013.88 1013.77 1013.71 1013.71 1013.78 1013.89 1014.01 1014.12 1014.21 1014.28 1014.33 1014.41 1014.52 1014.67 1014.86 1015.06 1015.26 1015.41 1015.51
1011.14 1012.08 1012.82 1013.31 1013.57 1013.64 1013.57 1013.45 1013.35 1013.34 1013.43 1013.63 1013.89 1014.16 1014.38 1014.52 1014.55 1014.48 1014.36 1014.23 1014.14 1014.12 1014.17 1014.27 1014.39 1014.48 1014.51 1014.47 1014.36 1014.20 1014.05 1013.94 1013.91 1013.95 1014.06 1014.21 1014.36 1014.49 1014.57 1014.62 1014.64 1014.67 1014.73 1014.83 1014.97 1015.13 1015.29 1015.41 1015.49
1011.42 1012.20 1012.76 1013.10 1013.25 1013.26 1013.21 1013.16 1013.16 1013.27 1013.48 1013.75 1014.05 1014.32 1014.51 1014.59 1014.57 1014.46 1014.31 1014.18 1014.10 1014.11 1014.19 1014.32 1014.46 1014.57 1014.60 1014.55 1014.44 1014.29 1014.16 1014.08 1014.08 1014.17 1014.32 1014.50 1014.68 1014.81 1014.89 1014.90 1014.89 1014.86 1014.86 1014.90 1014.99 1015.10 1015.22 1015.32 1015.38
1011.81 1012.46 1012.87 1013.08 1013.13 1013.09 1013.03 1013.01 1013.08 1013.25 1013.52 1013.83 1014.13 1014.38 1014.53 1014.56 1014.49 1014.34 1014.17 1014.03 1013.96 1013.98 1014.09 1014.23 1014.39 1014.50 1014.55 1014.52 1014.43 1014.31 1014.21 1014.17 1014.22 1014.35 1014.53 1014.74 1014.92 1015.06 1015.11 1015.10 1015.04 1014.96 1014.90 1014.89 1014.92 1014.99 1015.08 1015.16 1015.21
1012.32 1012.86 1013.16 1013.26 1013.22 1013.13 1013.04 1013.02 1013.11 1013.30 1013.57 1013.88 1014.16 1014.38 1014.49 1014.49 1014.38 1014.20 1014.02 1013.87 1013.80 1013.82 1013.92 1014.06 1014.22 1014.35 1014.41 1014.41 1014.35 1014.28 1014.22 1014.22 1014.30 1014.45 1014.65 1014.86 1015.05 1015.17 1015.20 1015.16 1015.07 1014.95 1014.85 1014.79 1014.79 1014.83 1014.90 1014.97 1015.01
1012.91 1013.37 1013.57 1013.59 1013.49 1013.35 1013.23 1013.19 1013.25 1013.42 1013.66 1013.93 1014.18 1014.36 1014.44 1014.42 1014.30 1014.12 1013.92 1013.77 1013.68 1013.68 1013.75 1013.89 1014.03 1014.16 1014.24 1014.27 1014.25 1014.22 1014.20 1014.22 1014.31 1014.46 1014.65 1014.84 1015.01 1015.11 1015.13 1015.07 1014.96 1014.83 1014.71 1014.63 1014.61 1014.63 1014.69 1014.76 1014.80
1013.50 1013.89 1014.04 1014.00 1013.87 1013.69 1013.54 1013.46 1013.48 1013.59 1013.78 1014.00 1014.21 1014.36 1014.43 1014.40 1014.29 1014.12 1013.93 1013.77 1013.66 1013.62 1013.66 1013.75 1013.88 1014.00 1014.09 1014.14 1014.15 1014.15 1014.15 1014.18 1014.25 1014.37 1014.52 1014.67 1014.79 1014.87 1014.88 1014.83 1014.73 1014.60 1014.49 1014.42 1014.40 1014.42 1014.48 1014.54 1014.59
1013.99 1014.33 1014.45 1014.41 1014.27 1014.09 1013.92 1013.81 1013.78 1013.83 1013.95 1014.10 1014.26 1014.39 1014.45 1014.44 1014.36 1014.21 1014.04 1013.87 1013.73 1013.66 1013.65 1013.70 1013.79 1013.89 1013.99 1014.06 1014.09 1014.10 1014.10 1014.11 1014.14 1014.19 1014.27 1014.36 1014.44 1014.49 1014.50 1014.47 1014.40 1014.31 1014.24 1014.19 1014.18 1014.20 1014.26 1014.33 1014.38
1014.33 1014.64 1014.76 1014.75 1014.65 1014.50 1014.35 1014.22 1014.14 1014.11 1014.15 1014.22 1014.32 1014.41 1014.48 1014.49 1014.44 1014.33 1014.18 1014.02 1013.86 1013.75 1013.69 1013.70 1013.76 1013.85 1013.95 1014.03 1014.08 1014.10 1014.08 1014.04 1014.00 1013.98 1013.97 1013.98 1014.01 1014.04 1014.05 1014.05 1014.04 1014.01 1013.98 1013.97 1013.97 1014.01 1014.06 1014.12 1014.17
1014.46 1014.77 1014.95 1015.01 1015.00 1014.92 1014.81 1014.68 1014.55 1014.45 1014.38 1014.35 1014.37 1014.41 1014.46 1014.48 1014.47 1014.40 1014.29 1014.14 1013.98 1013.85 1013.76 1013.73 1013.76 1013.85 1013.95 1014.05 1014.11 1014.13 1014.09 1014.00 1013.89 1013.77 1013.67 1013.61 1013.58 1013.59 1013.62 1013.66 1013.70 1013.74 1013.77 1013.79 1013.82 1013.85 1013.90 1013.95 1013.99
1014.40 1014.75 1015.03 1015.23 1015.35 1015.39 1015.34 1015.22 1015.04 1014.83 1014.63 1014.47 1014.37 1014.33 1014.33 1014.36 1014.37 1014.35 1014.27 1014.15 1014.01 1013.88 1013.78 1013.73 1013.77 1013.85 1013.98 1014.10 1014.18 1014.20 1014.14 1014.01 1013.83 1013.62 1013.44 1013.30 1013.22 1013.22 1013.27 1013.36 1013.46 1013.56 1013.64 1013.69 1013.73 1013.76 1013.78 1013.81 1013.84
1014.18 1014.63 1015.05 1015.44 1015.74 1015.92 1015.96 1015.84 1015.59 1015.25 1014.89 1014.56 1014.30 1014.14 1014.07 1014.07 1014.10 1014.11 1014.09 1014.02 1013.91 1013.80 1013.72 1013.69 1013.73 1013.84 1013.99 1014.15 1014.26 1014.29 1014.23 1014.07 1013.83 1013.56 1013.31 1013.11 1013.00 1012.98 1013.05 1013.18 1013.34 1013.49 1013.61 1013.68 1013.72 1013.72 1013.72 1013.72 1013.73
1013.86 1014.45 1015.08 1015.69 1016.21 1016.55 1016.68 1016.56 1016.22 1015.72 1015.16 1014.61 1014.16 1013.84 1013.67 1013.62 1013.65 1013.71 1013.74 1013.73 1013.69 1013.63 1013.58 1013.58 1013.65 1013.80 1013.99 1014.18 1014.33 1014.39 1014.34 1014.17 1013.90 1013.60 1013.30 1013.06 1012.92 1012.90 1012.98 1013.14 1013.34 1013.52 1013.67 1013.75 1013.77 1013.75 1013.70 1013.67 1013.66
1013.48 1014.27 1015.15 1016.01 1016.74 1017.25 1017.45 1017.32 1016.88 1016.20 1015.41 1014.64 1013.96 1013.47 1013.18 1013.07 1013.10 1013.19 1013.29 1013.37 1013.40 1013.40 1013.40 1013.45 1013.56 1013.74 1013.96 1014.19 1014.38 1014.47 1014.45 1014.29 1014.03 1013.71 1013.39 1013.14 1012.98 1012.96 1013.05 1013.22 1013.44 1013.64 1013.79 1013.86 1013.86 1013.80 1013.72 1013.65 1013.62
1013.09 1014.10 1015.22 1016.34 1017.29 1017.94 1018.21 1018.04 1017.49 1016.63 1015.62 1014.62 1013.73 1013.07 1012.67 1012.51 1012.54 1012.68 1012.86 1013.02 1013.13 1013.21 1013.27 1013.35 1013.49 1013.69 1013.94 1014.20 1014.41 1014.54 1014.55 1014.42 1014.17 1013.87 1013.56 1013.30 1013.15 1013.11 1013.20 1013.38 1013.59 1013.79 1013.93 1013.99 1013.96 1013.87 1013.76 1013.65 1013.59
1012.68 1013.91 1015.28 1016.61 1017.75 1018.52 1018.82 1018.62 1017.96 1016.94 1015.75 1014.55 1013.50 1012.71 1012.22 1012.03 1012.09 1012.29 1012.55 1012.80 1013.00 1013.14 1013.25 1013.36 1013.51 1013.71 1013.96 1014.22 1014.45 1014.60 1014.64 1014.54 1014.33 1014.06 1013.77 1013.52 1013.37 1013.33 1013.41 1013.57 1013.76 1013.94 1014.06 1014.10 1014.05 1013.93 1013.79 1013.66 1013.59
1012.27 1013.68 1015.24 1016.75 1018.01 1018.86 1019.18 1018.95 1018.21 1017.08 1015.76 1014.44 1013.29 1012.43 1011.92 1011.75 1011.85 1012.12 1012.47 1012.80 1013.07 1013.27 1013.40 1013.52 1013.66 1013.84 1014.06 1014.30 1014.52 1014.68 1014.74 1014.68 1014.51 1014.27 1014.01 1013.78 1013.64 1013.59 1013.64 1013.77 1013.93 1014.08 1014.17 1014.18 1014.11 1013.98 1013.83 1013.68 1013.59
1011.85 1013.39 1015.06 1016.66 1017.99 1018.87 1019.19 1018.93 1018.15 1016.98 1015.62 1014.28 1013.12 1012.28 1011.81 1011.69 1011.86 1012.22 1012.65 1013.05 1013.38 1013.61 1013.75 1013.85 1013.95 1014.08 1014.26 1014.46 1014.65 1014.81 1014.88 1014.85 1014.72 1014.52 1014.29 1014.08 1013.93 1013.87 1013.89 1013.98 1014.10 1014.20 1014.26 1014.25 1014.16 1014.03 1013.86 1013.72 1013.61
1011.43 1013.01 1014.71 1016.32 1017.64 1018.50 1018.81 1018.55 1017.79 1016.66 1015.35 1014.09 1013.02 1012.27 1011.90 1011.88 1012.15 1012.59 1013.08 1013.54 1013.89 1014.12 1014.25 1014.32 1014.37 1014.44 1014.56 1014.71 1014.87 1015.01 1015.09 1015.08 1014.98 1014.82 1014.62 1014.43 1014.27 1014.18 1014.16 1014.20 1014.27 1014.32 1014.34 1014.31 1014.22 1014.08 1013.92 1013.77 1013.66
1011.07 1012.60 1014.23 1015.75 1016.99 1017.80 1018.08 1017.84 1017.15 1016.13 1014.98 1013.88 1012.99 1012.41 1012.19 1012.29 1012.65 1013.15 1013.69 1014.16 1014.52 1014.74 1014.84 1014.87 1014.87 1014.88 1014.94 1015.05 1015.18 1015.29 1015.37 1015.38 1015.31 1015.17 1015.00 1014.81 1014.65 1014.53 1014.47 1014.45 1014.46 1014.47 1014.45 1014.39 1014.29 1014.15 1014.00 1013.86 1013.74
1010.81 1012.22 1013.69 1015.04 1016.14 1016.84 1017.10 1016.90 1016.32 1015.49 1014.57 1013.71 1013.06 1012.69 1012.63 1012.85 1013.29 1013.82 1014.36 1014.82 1015.15 1015.34 1015.41 1015.40 1015.37 1015.35 1015.37 1015.45 1015.55 1015.65 1015.73 1015.75 1015.69 1015.58 1015.41 1015.23 1015.06 1014.91 1014.80 1014.73 1014.68 1014.64 1014.58 1014.50 1014.38 1014.25 1014.11 1013.97 1013.85
1010.72 1011.94 1013.18 1014.31 1015.21 1015.79 1016.01 1015.87 1015.44 1014.83 1014.18 1013.61 1013.22 1013.07 1013.17 1013.49 1013.96 1014.49 1015.00 1015.41 1015.70 1015.85 1015.89 1015.86 1015.81 1015.79 1015.80 1015.86 1015.96 1016.06 1016.13 1016.15 1016.10 1015.99 1015.83 1015.64 1015.45 1015.28 1015.13 1015.01 1014.91 1014.82 1014.73 1014.62 1014.50 1014.36 1014.22 1014.08 1013.96
Thickness
5811 5808 5803 5791 5768 5746 5741 5752 5762 5761 5761 5768 5771 5766 5757 5751 5746 5743 5765 5774 5776 5776 5778 5779 5780 5781 5782 5784 5786 5788 5787 5786 5786 5787 5787 5787 5786 5785 5784 5783 5781 5780 5779 5777 5776 5775 5774 5772 5771
5813 5808 5797 5781 5752 5732 5740 5757 5760 5764 5769 5774 5772 5767 5759 5755 5762 5763 5767 5773 5775 5776 5777 5778 5779 5780 5781 5783 5784 5785 5784 5784 5785 5785 5786 5785 5784 5783 5782 5781 5779 5778 5777 5775 5774 5773 5772 5770 5768
5814 5809 5788 5768 5749 5739 5746 5761 5764 5771 5777 5775 5768 5767 5761 5757 5763 5765 5770 5774 5775 5775 5776 5777 5778 5778 5779 5781 5782 5782 5782 5782 5783 5783 5784 5783 5782 5781 5780 5779 5777 5776 5775 5774 5772 5771 5770 5768 5766
5812 5798 5784 5763 5753 5759 5763 5767 5772 5770 5774 5775 5769 5761 5764 5770 5770 5771 5774 5774 5773 5774 5774 5775 5776 5777 5778 5778 5779 5780 5780 5780 5780 5781 5781 5781 5780 5778 5777 5776 5775 5774 5773 5772 5771 5770 5768 5767 5765
5811 5790 5768 5754 5758 5769 5775 5777 5777 5770 5769 5771 5768 5757 5758 5770 5775 5774 5774 5774 5772 5772 5773 5773 5774 5775 5775 5776 5777 5778 5778 5778 5778 5778 5779 5778 5778 5777 5775 5775 5774 5773 5772 5771 5769 5768 5767 5765 5763
5798 5784 5756 5748 5760 5772 5778 5782 5778 5771 5770 5771 5767 5758 5758 5771 5772 5773 5774 5773 5773 5772 5772 5773 5773 5773 5774 5775 5775 5776 5776 5776 5777 5777 5777 5776 5776 5775 5774 5773 5772 5771 5770 5769 5768 5766 5765 5763 5762
5792 5775 5760 5761 5762 5769 5778 5785 5778 5772 5769 5771 5772 5758 5760 5768 5773 5774 5773 5773 5772 5772 5772 5772 5772 5772 5773 5773 5774 5774 5775 5775 5776 5776 5775 5775 5774 5774 5773 5772 5771 5770 5769 5768 5766 5765 5764 5762 5761
5804 5782 5767 5764 5765 5770 5785 5786 5785 5779 5774 5782 5779 5762 5759 5769 5775 5774 5772 5771 5771 5771 5771 5771 5771 5772 5772 5772 5773 5773 5774 5774 5774 5775 5774 5774 5773 5772 5771 5770 5769 5768 5767 5766 5765 5764 5762 5761 5760
5811 5777 5762 5769 5771 5777 5788 5784 5786 5791 5784 5783 5783 5777 5777 5779 5776 5771 5768 5767 5768 5770 5771 5772 5772 5771 5771 5772 5772 5773 5773 5773 5773 5773 5773 5772 5772 5771 5770 5769 5768 5767 5766 5765 5764 5763 5762 5761 5759
5801 5774 5779 5792 5792 5789 5791 5787 5787 5784 5777 5776 5778 5781 5783 5778 5774 5769 5766 5765 5766 5768 5770 5772 5772 5771 5771 5772 5772 5772 5772 5772 5772 5772 5771 5771 5770 5770 5769 5768 5767 5767 5766 5765 5763 5762 5761 5760 5759
5805 5791 5799 5804 5806 5802 5793 5791 5793 5781 5772 5778 5777 5778 5779 5776 5772 5770 5769 5769 5769 5770 5771 5772 5772 5772 5771 5771 5771 5771 5771 5771 5771 5770 5770 5770 5769 5769 5768 5767 5766 5766 5765 5764 5762 5761 5760 5759 5758
5809 5809 5812 5810 5811 5805 5797 5794 5789 5786 5786 5794 5791 5787 5781 5776 5773 5772 5771 5771 5772 5772 5772 5774 5774 5773 5772 5771 5771 5770 5770 5770 5770 5770 5770 5769 5769 5768 5767 5766 5765 5765 5764 5763 5762 5760 5760 5758 5757
5812 5813 5817 5816 5812 5807 5801 5794 5792 5790 5797 5798 5793 5787 5782 5779 5777 5777 5777 5775 5774 5773 5775 5776 5775 5774 5772 5771 5771 5771 5770 5769 5769 5769 5769 5769 5768 5767 5767 5766 5765 5764 5763 5763 5761 5760 5759 5758 5757
5818 5817 5814 5813 5810 5808 5798 5794 5793 5792 5798 5794 5790 5785 5784 5782 5780 5778 5777 5776 5776 5777 5777 5778 5777 5776 5774 5773 5772 5772 5771 5770 5770 5769 5769 5769 5768 5768 5766 5765 5764 5763 5763 5762 5761 5760 5758 5757 5757
5823 5811 5807 5808 5809 5806 5800 5785 5790 5797 5797 5791 5788 5786 5786 5785 5784 5782 5782 5781 5781 5780 5780 5780 5779 5778 5776 5775 5774 5774 5773 5772 5771 5770 5770 5769 5768 5768 5766 5765 5764 5763 5763 5762 5760 5759 5758 5756 5756
5813 5798 5787 5801 5807 5806 5794 5775 5794 5801 5796 5788 5788 5787 5786 5786 5787 5787 5787 5785 5785 5783 5782 5782 5782 5779 5778 5777 5776 5775 5774 5773 5772 5771 5770 5770 5769 5768 5767 5765 5764 5763 5762 5761 5760 5758 5756 5755 5754
5791 5780 5782 5794 5807 5805 5795 5784 5798 5802 5797 5790 5789 5789 5787 5787 5788 5790 5791 5790 5788 5787 5784 5783 5783 5781 5779 5778 5776 5775 5774 5774 5773 5772 5771 5770 5769 5768 5767 5766 5765 5764 5763 5761 5760 5758 5756 5753 5752
5780 5781 5784 5788 5803 5802 5792 5790 5798 5802 5799 5794 5792 5791 5789 5789 5791 5794 5795 5794 5792 5790 5788 5785 5784 5783 5781 5778 5776 5774 5773 5773 5773 5773 5772 5771 5770 5769 5767 5766 5765 5764 5762 5761 5759 5757 5755 5753 5751
5798 5790 5786 5794 5808 5799 5792 5791 5796 5801 5799 5796 5794 5793 5792 5793 5798 5798 5797 5796 5793 5791 5788 5787 5784 5783 5781 5778 5775 5773 5772 5772 5773 5773 5772 5771 5770 5769 5768 5766 5765 5764 5762 5760 5759 5756 5753 5750 5749
5799 5790 5788 5797 5808 5801 5791 5792 5800 5803 5802 5803 5800 5797 5797 5796 5796 5797 5798 5797 5794 5792 5790 5788 5786 5784 5783 5781 5779 5777 5775 5774 5773 5773 5772 5772 5771 5770 5769 5767 5765 5764 5762 5759 5757 5755 5751 5749 5748
5795 5790 5791 5790 5798 5800 5792 5785 5793 5802 5806 5806 5806 5805 5803 5801 5799 5800 5799 5798 5796 5794 5792 5791 5788 5787 5785 5783 5781 5778 5775 5773 5772 5772 5771 5772 5771 5770 5769 5768 5767 5764 5762 5759 5757 5755 5752 5747 5746
5788 5805 5802 5795 5782 5771 5782 5760 5785 5794 5798 5803 5806 5807 5808 5808 5807 5804 5803 5800 5799 5798 5797 5794 5791 5789 5787 5785 5782 5778 5773 5770 5771 5772 5772 5772 5772 5771 5770 5769 5767 5765 5762 5760 5758 5756 5753 5749 5745
5802 5811 5802 5793 5778 5767 5772 5762 5774 5790 5790 5801 5809 5813 5814 5814 5812 5810 5808 5807 5805 5803 5800 5796 5793 5791 5789 5786 5784 5780 5776 5774 5774 5773 5772 5771 5772 5771 5770 5769 5767 5765 5763 5760 5758 5756 5753 5750 5747
5810 5798 5786 5773 5764 5750 5764 5758 5766 5783 5797 5808 5815 5819 5819 5819 5818 5816 5814 5811 5807 5806 5802 5799 5794 5792 5790 5788 5785 5781 5778 5775 5773 5773 5772 5771 5771 5771 5770 5769 5767 5765 5762 5760 5758 5756 5753 5750 5748
5799 5773 5748 5745 5735 5742 5764 5760 5771 5804 5814 5819 5821 5823 5825 5824 5821 5818 5814 5811 5809 5806 5803 5800 5796 5793 5792 5789 5786 5784 5781 5779 5776 5775 5773 5771 5770 5770 5770 5769 5767 5764 5762 5760 5758 5755 5753 5750 5748
5788 5778 5748 5735 5731 5742 5759 5757 5788 5816 5823 5826 5828 5829 5828 5826 5824 5822 5820 5817 5813 5810 5806 5801 5798 5796 5794 5791 5788 5786 5784 5781 5779 5777 5775 5773 5772 5772 5771 5769 5767 5765 5763 5760 5758 5755 5752 5750 5747
5782 5774 5777 5752 5744 5741 5750 5767 5793 5816 5818 5821 5824 5826 5826 5828 5827 5825 5823 5820 5817 5813 5810 5807 5802 5798 5796 5793 5790 5787 5785 5783 5781 5779 5777 5775 5774 5774 5772 5770 5768 5766 5763 5760 5758 5754 5751 5749 5746
5794 5778 5759 5745 5731 5730 5747 5759 5773 5800 5807 5814 5818 5821 5824 5827 5827 5826 5824 5822 5820 5818 5814 5811 5807 5802 5799 5796 5793 5790 5786 5784 5782 5779 5777 5776 5775 5774 5772 5770 5768 5765 5762 5760 5756 5753 5750 5747 5744
5777 5770 5758 5745 5745 5731 5731 5754 5797 5803 5809 5811 5816 5821 5823 5825 5826 5825 5824 5823 5821 5818 5814 5810 5808 5804 5800 5797 5794 5791 5788 5785 5782 5779 5777 5775 5774 5773 5771 5769 5767 5764 5761 5758 5755 5752 5749 5745 5743
5786 5774 5761 5750 5740 5737 5736 5757 5808 5809 5812 5814 5817 5820 5822 5824 5824 5823 5822 5820 5818 5815 5813 5810 5808 5805 5802 5799 5795 5791 5788 5785 5782 5779 5778 5775 5773 5772 5770 5767 5765 5763 5760 5757 5754 5750 5748 5745 5742